Volver al catálogo

FENGYUN 1C DEB

ActivoPO
NORAD 31887·DEBRIS·🇨🇳 China

Lanzado May 10, 1999 desde Taiyuan Satellite Launch Center

Loading…

Próximos Pases (próximas 24 horas)

TLE

ActualizadoSource: Space-Track

Época: Sep 13, 2026, 05:32 UTC

1 31887U 99025CKN 26256.23121995  .00005085  00000-0  10433-2 0  9996
2 31887  99.5231 353.1589 0020214 256.5279 103.3665 14.61098387  6071

Sigue FENGYUN 1C DEB en tiempo real con AllMySat

Download on the App Store